<< Return to Weather Page
Livermore, CA
on Thursday, August 23, 2012

Thursday
Previous Day Next Day
Daily Summary
 ActualAverageRecord
Temperature
Mean Temperature - 72 °F  
Max Temperature 88 °F 87 °F 107 °F (1932)
Min Temperature 57 °F 57 °F 45 °F (1973)
Degree Days
Heating Degree Days 0 0  
Month to date heating degree days 0 0  
Since 1 June heating degree days 37 36  
Since 1 July heating degree days 0 4  
Cooling Degree Days 8 7  
Month to date cooling degree days 231 169  
Year to date cooling degree days 652 563  
Since 1 June cooling degree days 578 510  
Growing Degree Days22 (Base - )  
Moisture
Dew Point 54 °F   
Average Humidity 59    
Maximum Humidity 86    
Minimum Humidity 31    
Precipitation
Precipitation 0.00 in 0.00 in 0.00 in (2017)
Month to date precipitation 0.00 0.00  
Year to date precipitation 7.06 9.90  
Wind
Wind Speed 5 mph   
Max Wind Speed 16 mph   
Max Gust Speed 20 mph   
Visibility 9 miles   
Events     

Key: T is trace of precipitation, MM is missing value
Source: NWS Daily Summary
Time(PDT)TemperatureDew PointHumidity Pressure Visibility Wind DirectionWind SpeedGust SpeedPrecipitationEvents Conditions
1:53 AM 57.0 °F 53.1 °F 87% 29.88 in 9.0 miles West 3.5 mph - N/A   Clear
2:53 AM 57.9 °F 54.0 °F 87% 29.88 in 8.0 miles WNW 3.5 mph - N/A   Clear
3:53 AM 57.9 °F 54.0 °F 87% 29.88 in 8.0 miles Calm Calm - N/A   Clear
4:53 AM 57.0 °F 54.0 °F 89% 29.87 in 8.0 miles Calm Calm - N/A   Partly Cloudy
5:53 AM 57.0 °F 53.1 °F 87% 29.88 in 9.0 miles Calm Calm - N/A   Clear
6:00 AM 57.2 °F 53.6 °F 88% 29.89 in 9.0 miles NNW 3.5 mph - N/A   Partly Cloudy
6:53 AM 57.0 °F 54.0 °F 89% 29.90 in 6.0 miles Calm Calm - N/A   Scattered Clouds
7:08 AM 57.2 °F 53.6 °F 88% 29.91 in 6.0 miles WNW 3.5 mph - N/A   Mostly Cloudy
7:53 AM 60.1 °F 55.0 °F 83% 29.91 in 7.0 miles Calm Calm - N/A   Scattered Clouds
8:53 AM 62.1 °F 55.0 °F 78% 29.92 in 7.0 miles WNW 3.5 mph - N/A   Clear
9:53 AM 66.0 °F 55.0 °F 68% 29.92 in 10.0 miles Calm Calm - N/A   Clear
10:53 AM 71.1 °F 55.0 °F 57% 29.92 in 10.0 miles Calm Calm - N/A   Clear
11:53 AM 75.9 °F 55.0 °F 48% 29.91 in 10.0 miles Calm Calm - N/A   Clear
12:53 PM 81.0 °F 55.9 °F 42% 29.88 in 10.0 miles West 3.5 mph - N/A   Clear
1:53 PM 82.9 °F 55.0 °F 38% 29.87 in 10.0 miles Variable 6.9 mph - N/A   Clear
2:53 PM 86.0 °F 54.0 °F 33% 29.86 in 10.0 miles NW 9.2 mph - N/A   Clear
3:53 PM 87.1 °F 53.1 °F 31% 29.83 in 10.0 miles WNW 11.5 mph - N/A   Clear
4:53 PM 86.0 °F 54.0 °F 33% 29.82 in 10.0 miles NW 11.5 mph - N/A   Clear
5:53 PM 82.9 °F 54.0 °F 37% 29.81 in 10.0 miles WNW 11.5 mph - N/A   Clear
6:53 PM 78.1 °F 53.1 °F 42% 29.81 in 10.0 miles WNW 12.7 mph - N/A   Clear
7:53 PM 73.0 °F 53.1 °F 49% 29.82 in 10.0 miles West 10.4 mph - N/A   Clear
8:53 PM 69.1 °F 53.1 °F 57% 29.84 in 10.0 miles WNW 11.5 mph - N/A   Clear
9:53 PM 66.0 °F 52.0 °F 60% 29.86 in 10.0 miles WNW 9.2 mph - N/A   Clear
10:53 PM 64.0 °F 51.1 °F 63% 29.86 in 10.0 miles WNW 5.8 mph - N/A   Clear
11:53 PM 62.1 °F 51.1 °F 67% 29.86 in 10.0 miles West 3.5 mph - N/A   Clear

Astronomy

Sunrise: 06:30 AM (PDT) Moon Rise: 01:14 PM (PDT)
Sunset: 07:48 PM (PDT) Moon Set: 11:30 PM (PDT)
Moon Phase
Aug. 23 Aug. 24 Aug. 31 Sep. 08 Sep. 16

Powered by the Weather Underground, Inc.